Hourly Weather Valka

Today, 14 June, Monday

Time Temperature Precipitation Wind Pressure Humidity
00:00 +9°C° 0 mm 2 mps 755 mmHg 90%
01:00 +8°C° 0 mm 2 mps 755 mmHg 91%
02:00 +7°C° 0 mm 2 mps 756 mmHg 93%
03:00 +7°C° 0 mm 2 mps 756 mmHg 91%
04:00 +8°C° 0 mm 2 mps 757 mmHg 89%
05:00 +9°C° 0 mm 1 mps 757 mmHg 87%
06:00 +10°C° 0 mm 2 mps 757 mmHg 76%
07:00 +13°C° 0 mm 2 mps 757 mmHg 66%
08:00 +15°C° 0 mm 2 mps 758 mmHg 55%
09:00 +17°C° 0 mm 2 mps 758 mmHg 50%
10:00 +19°C° 0 mm 1 mps 758 mmHg 44%
11:00 +21°C° 0 mm 1 mps 758 mmHg 39%
12:00 +22°C° 0 mm 1 mps 757 mmHg 37%
13:00 +22°C° 0 mm 1 mps 757 mmHg 35%
14:00 +23°C° 0 mm 2 mps 757 mmHg 32%
15:00 +23°C° 0 mm 2 mps 757 mmHg 33%
16:00 +23°C° 0 mm 2 mps 756 mmHg 34%
17:00 +23°C° 0 mm 2 mps 756 mmHg 35%
18:00 +20°C° 0 mm 2 mps 756 mmHg 45%
19:00 +18°C° 0 mm 2 mps 756 mmHg 55%
20:00 +16°C° 0 mm 1 mps 755 mmHg 65%
21:00 +15°C° 0 mm 2 mps 755 mmHg 64%
22:00 +14°C° 0 mm 2 mps 755 mmHg 64%
23:00 +12°C° 0 mm 2 mps 755 mmHg 63%

Tomorrow, 15 June, Tuesday

Time Temperature Precipitation Wind Pressure Humidity
00:00 +12°C° 0 mm 2 mps 754 mmHg 68%
01:00 +11°C° 0 mm 3 mps 754 mmHg 73%
02:00 +11°C° 0 mm 3 mps 754 mmHg 77%
03:00 +11°C° 0 mm 3 mps 753 mmHg 76%
04:00 +12°C° 0 mm 3 mps 753 mmHg 75%
05:00 +12°C° 0 mm 4 mps 753 mmHg 73%
06:00 +13°C° 0 mm 4 mps 753 mmHg 73%
07:00 +14°C° 0 mm 4 mps 753 mmHg 73%
08:00 +15°C° 0 mm 4 mps 753 mmHg 73%
09:00 +15°C° 0.1 mm 4 mps 753 mmHg 79%
10:00 +15°C° 0.1 mm 4 mps 753 mmHg 85%
11:00 +14°C° 0.1 mm 4 mps 753 mmHg 91%
12:00 +17°C° 0.1 mm 4 mps 753 mmHg 80%
13:00 +18°C° 0.1 mm 4 mps 753 mmHg 69%
14:00 +19°C° 0.1 mm 4 mps 753 mmHg 58%
15:00 +19°C° 0 mm 4 mps 753 mmHg 54%
16:00 +19°C° 0 mm 4 mps 753 mmHg 51%
17:00 +19°C° 0 mm 4 mps 753 mmHg 48%
18:00 +18°C° 0 mm 4 mps 753 mmHg 54%
19:00 +16°C° 0 mm 3 mps 754 mmHg 61%
20:00 +14°C° 0 mm 3 mps 754 mmHg 67%
21:00 +13°C° 0 mm 2 mps 754 mmHg 77%
22:00 +10°C° 0 mm 2 mps 755 mmHg 87%
23:00 +9°C° 0 mm 2 mps 755 mmHg 96%

Day after tomorrow, 16 June, Wednesday

Time Temperature Precipitation Wind Pressure Humidity
00:00 +8°C° 0 mm 2 mps 756 mmHg 96%
01:00 +8°C° 0 mm 2 mps 756 mmHg 96%
02:00 +9°C° 0 mm 1 mps 756 mmHg 96%
03:00 +9°C° 0 mm 1 mps 757 mmHg 94%
04:00 +9°C° 0 mm 1 mps 757 mmHg 91%
05:00 +10°C° 0 mm 1 mps 758 mmHg 89%
06:00 +12°C° 0 mm 1 mps 758 mmHg 77%
07:00 +13°C° 0 mm 0 mps 758 mmHg 66%
08:00 +16°C° 0 mm 0 mps 758 mmHg 54%
09:00 +19°C° 0 mm 1 mps 759 mmHg 49%
10:00 +21°C° 0 mm 1 mps 759 mmHg 43%
11:00 +22°C° 0 mm 1 mps 759 mmHg 37%
12:00 +23°C° 0 mm 1 mps 759 mmHg 36%
13:00 +24°C° 0 mm 1 mps 759 mmHg 34%
14:00 +24°C° 0 mm 1 mps 759 mmHg 33%
15:00 +24°C° 0 mm 1 mps 759 mmHg 34%
16:00 +24°C° 0 mm 2 mps 759 mmHg 34%
17:00 +24°C° 0 mm 2 mps 759 mmHg 35%
18:00 +22°C° 0 mm 1 mps 759 mmHg 45%
19:00 +20°C° 0 mm 1 mps 759 mmHg 55%
20:00 +18°C° 0 mm 1 mps 759 mmHg 64%
21:00 +16°C° 0 mm 1 mps 760 mmHg 66%
22:00 +14°C° 0 mm 0 mps 760 mmHg 67%
23:00 +12°C° 0 mm 0 mps 760 mmHg 68%

17 June, Thursday

Time Temperature Precipitation Wind Pressure Humidity
00:00 +12°C° 0 mm 0 mps 761 mmHg 70%
01:00 +12°C° 0 mm 1 mps 761 mmHg 72%
02:00 +12°C° 0 mm 1 mps 761 mmHg 74%
03:00 +12°C° 0 mm 1 mps 761 mmHg 75%
04:00 +12°C° 0 mm 1 mps 761 mmHg 76%
05:00 +13°C° 0 mm 1 mps 762 mmHg 77%
06:00 +15°C° 0 mm 1 mps 762 mmHg 70%
07:00 +18°C° 0 mm 1 mps 762 mmHg 63%
08:00 +21°C° 0 mm 1 mps 762 mmHg 56%
09:00 +21°C° 0 mm 2 mps 762 mmHg 50%
10:00 +24°C° 0 mm 2 mps 762 mmHg 45%
11:00 +25°C° 0 mm 2 mps 763 mmHg 40%
12:00 +26°C° 0 mm 2 mps 762 mmHg 38%
13:00 +26°C° 0 mm 2 mps 762 mmHg 36%
14:00 +27°C° 0 mm 2 mps 762 mmHg 34%
15:00 +27°C° 0 mm 2 mps 762 mmHg 35%
16:00 +27°C° 0 mm 2 mps 762 mmHg 36%
17:00 +27°C° 0 mm 2 mps 762 mmHg 37%
18:00 +25°C° 0 mm 1 mps 762 mmHg 47%
19:00 +23°C° 0 mm 1 mps 762 mmHg 58%
20:00 +22°C° 0 mm 1 mps 762 mmHg 69%
21:00 +20°C° 0 mm 1 mps 762 mmHg 73%
22:00 +18°C° 0 mm 1 mps 762 mmHg 78%
23:00 +16°C° 0 mm 1 mps 762 mmHg 83%

18 June, Friday

Time Temperature Precipitation Wind Pressure Humidity
00:00 +15°C° 0 mm 1 mps 762 mmHg 85%
01:00 +15°C° 0 mm 1 mps 763 mmHg 87%
02:00 +14°C° 0 mm 1 mps 763 mmHg 89%
03:00 +15°C° 0 mm 1 mps 763 mmHg 87%
04:00 +15°C° 0 mm 1 mps 763 mmHg 86%
05:00 +16°C° 0 mm 1 mps 763 mmHg 84%
06:00 +18°C° 0 mm 2 mps 763 mmHg 75%
07:00 +20°C° 0 mm 2 mps 763 mmHg 67%
08:00 +23°C° 0 mm 2 mps 763 mmHg 58%
09:00 +25°C° 0 mm 2 mps 762 mmHg 53%
10:00 +26°C° 0 mm 3 mps 762 mmHg 48%
11:00 +28°C° 0 mm 3 mps 762 mmHg 42%
12:00 +28°C° 0 mm 3 mps 762 mmHg 39%
13:00 +29°C° 0 mm 3 mps 762 mmHg 36%
14:00 +30°C° 0 mm 3 mps 761 mmHg 33%
15:00 +30°C° 0 mm 3 mps 761 mmHg 35%
16:00 +29°C° 0 mm 3 mps 761 mmHg 36%
17:00 +29°C° 0 mm 3 mps 761 mmHg 37%
18:00 +27°C° 0 mm 2 mps 761 mmHg 48%
19:00 +25°C° 0 mm 2 mps 761 mmHg 58%
20:00 +23°C° 0 mm 2 mps 761 mmHg 69%
21:00 +21°C° 0 mm 2 mps 761 mmHg 74%
22:00 +20°C° 0 mm 1 mps 761 mmHg 79%
23:00 +19°C° 0 mm 1 mps 762 mmHg 84%

19 June, Saturday

Time Temperature Precipitation Wind Pressure Humidity
00:00 +18°C° 0 mm 1 mps 762 mmHg 86%
01:00 +18°C° 0 mm 1 mps 762 mmHg 88%
02:00 +16°C° 0 mm 1 mps 762 mmHg 91%
03:00 +18°C° 0 mm 1 mps 762 mmHg 89%
04:00 +18°C° 0 mm 1 mps 762 mmHg 88%
05:00 +18°C° 0 mm 1 mps 763 mmHg 86%
06:00 +21°C° 0 mm 1 mps 763 mmHg 78%
07:00 +23°C° 0 mm 1 mps 763 mmHg 70%
08:00 +25°C° 0 mm 2 mps 763 mmHg 61%
09:00 +26°C° 0 mm 2 mps 763 mmHg 56%
10:00 +27°C° 0 mm 2 mps 763 mmHg 51%
11:00 +29°C° 0 mm 2 mps 762 mmHg 45%
12:00 +30°C° 0 mm 2 mps 762 mmHg 43%
13:00 +30°C° 0 mm 2 mps 762 mmHg 40%
14:00 +31°C° 0 mm 2 mps 762 mmHg 37%
15:00 +31°C° 0 mm 2 mps 762 mmHg 38%
16:00 +31°C° 0 mm 2 mps 762 mmHg 39%
17:00 +31°C° 0 mm 2 mps 761 mmHg 40%
18:00 +29°C° 0 mm 2 mps 761 mmHg 50%
19:00 +27°C° 0 mm 2 mps 761 mmHg 61%
20:00 +25°C° 0 mm 2 mps 761 mmHg 71%
21:00 +24°C° 0 mm 2 mps 761 mmHg 75%
22:00 +21°C° 0 mm 2 mps 762 mmHg 80%
23:00 +20°C° 0 mm 2 mps 762 mmHg 84%
Show more

We Need Your Consent

Meteoprog and our Service Providers may store and access personal data such as cookies, device identifiers or other similar technologies on your device and process such data to personalise content and ads, as well as provide social media features and to analyse the traffic.

  • Store and/or access information on your device

    Cookies, device identifiers or other information can be stored or accessed on your device for the purposes indicated above.

  • Personalised ads and content, ad and content measurement, audience insights, and products development

    Ads and content can be personalised based on a profile. More data can be added to better personalise ads and content. Ad and content performance can be measured. Insights about the audience who saw the ads and content can be derived. Such data can be used to develop or improve user’s experience, systems and software.

By clicking ‘I Agree’ you will allow the use of indicated cookies, device identifiers, web beacons or other similar technologies. Your settings can be changed in the browser on your device.

For certain purposes, legitimate interests may be relied on, rather than consent. You can read more about this in our Privacy and Cookie Policy.